This is the latest recevied weather packets stored in our database for station/object KU9TRY. If no packets are shown the sender has not sent any weather packets the latest 10 day(s).
| Time | Temp. | Humidity | Pressure | Rain* | Wind** | Luminosity | Snow |
|---|---|---|---|---|---|---|---|
| 1787852568 | 30.56° C | 51% | 1015.9 hPa | 0 mm | - | 949 W/m² | - |
| 1787852267 | 30.56° C | 50% | 1015.8 hPa | 0 mm | - | 946 W/m² | - |
| 1787851962 | 30.56° C | 52% | 1015.9 hPa | 0 mm | - | 946 W/m² | - |
| 1787851661 | 31.11° C | 52% | 1016 hPa | 0 mm | - | 941 W/m² | - |
| 1787851361 | 30.56° C | 54% | 1016.1 hPa | 0 mm | - | 937 W/m² | - |
| 1787851057 | 30° C | 55% | 1016.2 hPa | 0 mm | - | 932 W/m² | - |
| 1787850752 | 30° C | 57% | 1016.2 hPa | 0 mm | - | 934 W/m² | - |
| 1787850447 | 29.44° C | 57% | 1016.4 hPa | 0 mm | - | 933 W/m² | - |
| 1787850143 | 29.44° C | 59% | 1016.3 hPa | 0 mm | - | 928 W/m² | - |
| 1787849842 | 29.44° C | 57% | 1016.2 hPa | 0 mm | - | 915 W/m² | - |
| 1787849537 | 29.44° C | 57% | 1016.2 hPa | 0 mm | - | 900 W/m² | - |
| 1787849236 | 28.89° C | 58% | 1016.7 hPa | 0 mm | - | 923 W/m² | - |
| 1787848935 | 29.44° C | 60% | 1016.4 hPa | 0 mm | - | 926 W/m² | - |
| 1787848630 | 28.89° C | 59% | 1016.3 hPa | 0 mm | - | 926 W/m² | - |
| 1787848326 | 28.89° C | 59% | 1016.6 hPa | 0 mm | - | 861 W/m² | - |
| 1787848026 | 29.44° C | 59% | 1016.6 hPa | 0 mm | - | 896 W/m² | - |
| 1787847725 | 28.89° C | 60% | 1016.5 hPa | 0 mm | - | 875 W/m² | - |
| 1787847421 | 28.33° C | 62% | 1016.5 hPa | 0 mm | - | 838 W/m² | - |
| 1787847116 | 28.33° C | 63% | 1016.8 hPa | 0 mm | - | 852 W/m² | - |
| 1787846812 | 28.33° C | 61% | 1016.7 hPa | 0 mm | - | 839 W/m² | - |
| 1787846507 | 28.33° C | 60% | 1016.7 hPa | 0 mm | - | 851 W/m² | - |
| 1787846203 | 28.33° C | 63% | 1016.7 hPa | 0 mm | - | 858 W/m² | - |
| 1787845898 | 28.33° C | 61% | 1016.5 hPa | 0 mm | - | 822 W/m² | - |
| 1787845598 | 27.78° C | 64% | 1016.6 hPa | 0 mm | - | 822 W/m² | - |
| 1787845293 | 27.78° C | 62% | 1016.9 hPa | 0 mm | - | 819 W/m² | - |
* Rain latest hour (hover to see other rain measurements)
** Current wind speed in m/s (hover to see current wind gust speed)